User: anonymous   Login
Location: Charlottesville
(38.0290°N, 78.4770°W)
Time: 05:38:47
(UTC-05:00)
Language:

XW-2F - Orbit

View from above orbital plane
View from above orbital plane
View from above satellite
View from above satellite

Ground track
Ground track

The orbit data is extracted from the following two-line orbital elements,

1 40910U 15049M   19050.02758022  .00000712  00000-0  39359-4 0  9997
2 40910  97.4611  55.5566 0013292 243.9956 182.5690 15.17034627188870
Epoch (UTC): 19 February 2019 00:39:42
Eccentricity: 0.0013292
inclination: 97.4611°
perigee height: 505 km
apogee height: 524 km
right ascension of ascending node: 55.5566°
argument of perigee: 243.9956°
revolutions per day: 15.17034627
mean anomaly at epoch: 182.5690°
orbit number at epoch: 18887

The dashed part of the orbit path shows where the satellite is in the earth's shadow,  

DLR